User: anonymous
Location: Caltech
(34.1382°N, 118.1253°W)
Time: 15:19:44
(UTC-07:00)
Language:

SEDSat Delta rocket - Orbit

View from above orbital plane
View from above orbital plane
View from above satellite
View from above satellite

Ground track
Ground track

The orbit data is extracted from the following two-line orbital elements,

1 25510U 98061C   14273.45047367  .00000921  00000-0  15264-3 0  9724
2 25510 031.4366 058.9934 0332864 300.6845 094.4806 14.35891483834729
Epoch (UTC): 30 September 2014 10:48:40
Eccentricity: 0.0332864
inclination: 31.4366°
perigee height: 534 km
apogee height: 1010 km
right ascension of ascending node: 58.9934°
argument of perigee: 300.6845°
revolutions per day: 14.35891483
mean anomaly at epoch: 94.4806°
orbit number at epoch: 83472

The dashed part of the orbit path shows where the satellite is in the earth's shadow,  

DLR